Regional Weather Roundup
Issued by NWS

Home | Current Version | Previous Version | Graphics & Text | Print | Product List | Glossary On
Versions: 1 2 3 4 5 6 7 8 9 10 11 12 13 14 15 16 17 18 19 20 21 22 23 24 25 26 27 28 29 30 31 32 33 34 35 36 37 38 39 40 41 42 43 44 45 46 47 48 49 50
210
ASUS45 KSLC 281110
RWRUT

UTAH REGIONAL WEATHER ROUNDUP
NATIONAL WEATHER SERVICE SALT LAKE CITY UT
500 AM MDT FRI APR 28 2017

UTZ001>011-023>025-281200-

NORTHERN UTAH

CITY           SKY/WX    TMP DP  RH WIND       PRES   REMARKS
BRIGHAM CITY   PTCLDY    36  21  55 W3        29.87F
HILL AFB       PTCLDY    34  19  54 N7        29.85S WCI  28
LOGAN          PTCLDY    29  22  75 CALM      29.85F
OGDEN          CLEAR     34  21  59 N6        29.85S WCI  29
SALT LAKE CITY CLOUDY    37  33  85 S6        29.87R WCI  32
TOOELE VALLEY  MOCLDY    34  25  69 S3        29.89R
WENDOVER       MOCLDY    38  21  50 W6        29.91F WCI  33
WEST JORDAN    CLOUDY    36  36 100 W8        29.88S WCI  30

$$

UTZ011>015-024>027-281200-

CENTRAL/NORTHEAST UTAH

CITY           SKY/WX    TMP DP  RH WIND       PRES   REMARKS
PROVO AIRPORT  MOCLDY    35  23  61 N9        29.87S WCI  28
MOAB/CANYONLAN CLEAR     36  18  48 W12       29.76S WCI  28
DELTA          PTCLDY    32  27  80 NE5       29.89S WCI  27
PRICE          CLEAR     30  17  58 NW8       29.77F WCI  22
ROOSEVELT      CLEAR     32  18  55 CALM      29.77S
VERNAL         CLEAR     30  20  66 CALM      29.76R

$$

UTZ013>016-019>022-027-281200-

SOUTHERN UTAH

CITY           SKY/WX    TMP DP  RH WIND       PRES   REMARKS
BRYCE CANYON   CLEAR     25  19  78 NW7       29.81F WCI  17
CEDAR CITY     CLEAR     33  24  69 N10       29.85S WCI  25
MILFORD        MOCLDY    33  27  78 NW9       29.87F WCI  25
ST GEORGE      MOSUNNY   52  26  36 CALM      29.82S
HANKSVILLE     CLOUDY    39  27  60 NW13      29.83R WCI  32
BLANDING       PTCLDY    29  16  59 NW8       29.84S WCI  21

$$

REGIONAL REPORTS     COLORADO/ARIZONA

CITY           SKY/WX    TMP DP  RH WIND       PRES   REMARKS
CRAIG, CO      CLOUDY    31  23  72 W7        29.75S WCI  24
GRAND JUNCTION CLEAR     30  17  58 CALM      29.75F
RIFLE, CO      CLOUDY    31  29  92 CALM      29.75S
MONTROSE, CO   MOCLDY    29  18  63 S6        29.78S WCI  23
CORTEZ, CO     CLOUDY    39  20  46 CALM      29.77R
COLORADO CITY    N/A     45  21  39 NW6       29.85R
PAGE, AZ       MOCLDY    49  22  34 NW9G16    29.77R
GRAND CANYON   CLOUDY    42  17  36 CALM      29.78F
KINGMAN, AZ    CLEAR     52  15  23 NE9       29.75S
FLAGSTAFF, AZ  PTCLDY    39  18  42 SW3       29.79F

$$

REGIONAL REPORTS    NEVADA/IDAHO/WYOMING

CITY           SKY/WX    TMP DP  RH WIND       PRES   REMARKS
LAS VEGAS, NV  PTCLDY    63  13  14 NE21      29.77R
ELY, NY        PTCLDY    28  18  66 NW10      29.92S WCI  19
ELKO, NV       CLOUDY    33  25  72 NW5       29.97S WCI  29
POCATELLO, ID  CLOUDY    31  28  89 SW12      29.89R WCI  22
BURLEY, ID     LGT SNOW  32  30  92 W12       29.91S FOG     WCI  23
EVANSTON, WY   CLEAR     21  16  81 SW9       29.79S WCI  11
ROCK SPRINGS,  LGT SNOW  29  21  72 W20       29.73S WCI  16

$$




USA.gov is the U.S. government's official web portal to all federal, state and local government web resources and services.